This demonstration page uses our WeatherBlox Daily Observations layout. Learn more.

Left ArrowRight Arrow

Hourly Observations for April 18, 2021

Temp ( °F °C ) Dew Point ( °F °C ) Humidity (%) Winds ( mph kmh ) Pressure ( in mb ) Visibility ( mi km ) Precip ( " mm )
12:56 am 00:56 Clear 35 1.7 32 0 89 89 WNW 7 11 30.18 1022 10 16 0.00 0.00
1:56 am 01:56 Clear 34 1.1 31 -0.6 89 89 WNW 6 9 30.17 1022 10 16 0.00 0.00
2:56 am 02:56 Clear 32 0 30 -1.1 92 92 WNW 5 7 30.16 1021 10 16 0.00 0.00
3:56 am 03:56 Clear 31 -0.6 29 -1.7 92 92 WNW 6 9 30.14 1021 10 16 0.00 0.00
4:56 am 04:56 Cloudy 32 0 30 -1.1 92 92 WNW 8 13 30.14 1021 10 16 0.00 0.00
5:56 am 05:56 Clear 31 -0.6 29 -1.7 92 92 NW 8 13 30.13 1020 10 16 0.00 0.00
6:56 am 06:56 Sunny 31 -0.6 29 -1.7 92 92 NW 8 13 30.13 1020 10 16 0.00 0.00
7:56 am 07:56 Sunny with Mist and Fog 34 1.1 32 0 92 92 WNW 8 13 30.13 1020 4 6 0.00 0.00
8:56 am 08:56 Sunny 39 3.9 34 1.1 82 82 WNW 7 11 30.12 1020 10 16 0.00 0.00
9:56 am 09:56 Sunny 45 7.2 33 0.6 63 63 WNW 9 15 30.11 1020 10 16 0.00 0.00
10:56 am 10:56 Sunny 50 10 28 -2.2 43 43 NW 7 11 30.09 1019 10 16 0.00 0.00
11:56 am 11:56 Sunny 53 11.7 30 -1.1 41 41 W 8 13 30.08 1019 10 16 0.00 0.00
12:56 pm 12:56 Sunny 56 13.3 31 -0.6 39 39 WNW 9 15 30.05 1018 10 16 0.00 0.00
1:56 pm 13:56 Mostly Sunny 58 14.4 32 0 38 38 W 10 17 30.03 1017 10 16 0.00 0.00
2:56 pm 14:56 Sunny 60 15.6 28 -2.2 30 30 NW 10 17 30.01 1016 10 16 0.00 0.00
3:56 pm 15:56 Mostly Sunny 62 16.7 31 -0.6 31 31 W 10 17 29.98 1015 10 16 0.00 0.00
4:56 pm 16:56 Sunny 63 17.2 31 -0.6 30 30 VRB 5 7 29.96 1015 10 16 0.00 0.00
5:56 pm 17:56 Sunny 64 17.8 32 0 30 30 WSW 6 9 29.95 1014 10 16 0.00 0.00
6:56 pm 18:56 Sunny 63 17.2 29 -1.7 28 28 WNW 6 9 29.94 1014 10 16 0.00 0.00
7:56 pm 19:56 Sunny 62 16.7 31 -0.6 31 31 Calm 29.93 1014 10 16 0.00 0.00
8:56 pm 20:56 Clear 52 11.1 35 1.7 53 53 SSW 8 13 29.93 1014 10 16 0.00 0.00
9:56 pm 21:56 Clear 52 11.1 35 1.7 53 53 SW 8 13 29.93 1014 10 16 0.00 0.00
10:56 pm 22:56 Clear 51 10.6 34 1.1 52 52 SW 10 17 29.93 1014 10 16 0.00 0.00
11:56 pm 23:56 Partly Cloudy 50 10 35 1.7 57 57 N 13 20 29.96 1015 10 16 0.00 0.00

Powered by AerisWeather